| time (UTC) | temp F | wind direction | speed MPH | gust MPH | rain 1hr in | rain 24hr in | rain mn in | humidity % | barometer mb |
| 20260903151541 | 73 | 355 | 0.0 | 1.0 | 0.00 | 0.00 | 0.00 | 43 | 1004.5 |
| 20260903150049 | 70 | 355 | 0.0 | 1.0 | 0.00 | 0.00 | 0.00 | 45 | 1004.7 |
| 20260903144541 | 68 | 355 | 0.0 | 0.0 | 0.00 | 0.00 | 0.00 | 62 | 1004.9 |
| 20260903143044 | 65 | 355 | 0.0 | 0.0 | 0.00 | 0.00 | 0.00 | 62 | 1004.8 |
| 20260903141536 | 62 | 355 | 0.0 | 0.0 | 0.00 | 0.00 | 0.00 | 68 | 1005.0 |
| 20260903140033 | 60 | 355 | 0.0 | 0.0 | 0.00 | 0.00 | 0.00 | 69 | 1005.0 |
| 20260903134543 | 59 | 355 | 0.0 | 0.0 | 0.00 | 0.00 | 0.00 | 68 | 1004.7 |
| 20260903133034 | 58 | 355 | 0.0 | 0.0 | 0.00 | 0.00 | 0.00 | 68 | 1004.5 |
| 20260903131528 | 57 | 355 | 0.0 | 0.0 | 0.00 | 0.00 | 0.00 | 71 | 1004.4 |
| 20260903130027 | 57 | 355 | 0.0 | 0.0 | 0.00 | 0.00 | 0.00 | 72 | 1004.4 |
| 20260903124525 | 58 | 355 | 0.0 | 0.0 | 0.00 | 0.00 | 0.00 | 72 | 1004.3 |
| 20260903123026 | 58 | 355 | 0.0 | 0.0 | 0.00 | 0.00 | 0.00 | 70 | 1004.2 |
| 20260903121526 | 59 | 355 | 0.0 | 0.0 | 0.00 | 0.00 | 0.00 | 68 | 1003.9 |
| 20260903120018 | 59 | 355 | 0.0 | 0.0 | 0.00 | 0.00 | 0.00 | 66 | 1003.6 |
| 20260903114520 | 59 | 355 | 0.0 | 0.0 | 0.00 | 0.00 | 0.00 | 67 | 1003.4 |
| 20260903113012 | 60 | 355 | 0.0 | 0.0 | 0.00 | 0.00 | 0.00 | 65 | 1003.1 |
| 20260903111510 | 60 | 355 | 0.0 | 0.0 | 0.00 | 0.00 | 0.00 | 63 | 1003.1 |
| 20260903110007 | 60 | 355 | 0.0 | 0.0 | 0.00 | 0.00 | 0.00 | 61 | 1002.9 |
| 20260903104505 | 61 | 355 | 0.0 | 0.0 | 0.00 | 0.00 | 0.00 | 60 | 1002.9 |
| 20260903103005 | 61 | 355 | 0.0 | 0.0 | 0.00 | 0.00 | 0.00 | 60 | 1002.9 |
| 20260903094608 | 62 | 355 | 0.0 | 0.0 | 0.00 | 0.00 | 0.00 | 57 | 1003.0 |
| 20260903093102 | 63 | 355 | 0.0 | 0.0 | 0.00 | 0.00 | 0.00 | 59 | 1002.8 |
| 20260903091552 | 64 | 355 | 0.0 | 0.0 | 0.00 | 0.00 | 0.00 | 58 | 1002.8 |
| 20260903090050 | 64 | 355 | 0.0 | 0.0 | 0.00 | 0.00 | 0.00 | 60 | 1002.9 |
| 20260903084549 | 64 | 355 | 0.0 | 0.0 | 0.00 | 0.00 | 0.00 | 55 | 1002.9 |
| 20260903083046 | 65 | 355 | 0.0 | 0.0 | 0.00 | 0.00 | 0.00 | 55 | 1002.9 |
| 20260903081547 | 65 | 355 | 0.0 | 0.0 | 0.00 | 0.00 | 0.00 | 54 | 1002.9 |
| 20260903080039 | 66 | 355 | 0.0 | 0.0 | 0.00 | 0.00 | 0.00 | 54 | 1002.8 |
| 20260903074537 | 67 | 355 | 0.0 | 1.0 | 0.00 | 0.00 | 0.00 | 51 | 1002.8 |
| 20260903073036 | 67 | 355 | 0.0 | 0.0 | 0.00 | 0.00 | 0.00 | 50 | 1002.8 |
| 20260903071534 | 68 | 355 | 0.0 | 1.0 | 0.00 | 0.00 | 0.00 | 52 | 1002.7 |
| 20260903070134 | 68 | 355 | 0.0 | 2.0 | 0.00 | 0.00 | 0.00 | 46 | 1002.7 |
| 20260903064529 | 69 | 355 | 0.0 | 3.0 | 0.00 | 0.00 | 0.00 | 42 | 1002.6 |
| 20260903063027 | 69 | 339 | 1.0 | 3.0 | 0.00 | 0.00 | 0.00 | 41 | 1002.7 |
| 20260903061526 | 69 | 322 | 0.0 | 2.0 | 0.00 | 0.00 | 0.00 | 37 | 1002.6 |
| 20260903060023 | 69 | 321 | 0.0 | 1.0 | 0.00 | 0.00 | 0.00 | 36 | 1002.4 |
| 20260903054522 | 68 | 321 | 0.0 | 1.0 | 0.00 | 0.00 | 0.00 | 40 | 1002.4 |
| 20260903053021 | 68 | 321 | 0.0 | 0.0 | 0.00 | 0.00 | 0.00 | 40 | 1002.2 |
| 20260903051521 | 69 | 321 | 0.0 | 0.0 | 0.00 | 0.00 | 0.00 | 37 | 1002.0 |
| 20260903050020 | 70 | 321 | 0.0 | 0.0 | 0.00 | 0.00 | 0.00 | 36 | 1002.0 |
| 20260903044519 | 72 | 321 | 0.0 | 0.0 | 0.00 | 0.00 | 0.00 | 35 | 1002.0 |
| 20260903043021 | 73 | 321 | 0.0 | 0.0 | 0.00 | 0.00 | 0.00 | 33 | 1001.9 |
| 20260903041518 | 74 | 321 | 0.0 | 0.0 | 0.00 | 0.00 | 0.00 | 30 | 1001.7 |
| 20260903040017 | 75 | 321 | 0.0 | 0.0 | 0.00 | 0.00 | 0.00 | 29 | 1001.9 |
| 20260903034517 | 75 | 321 | 0.0 | 0.0 | 0.00 | 0.00 | 0.00 | 29 | 1001.9 |
| 20260903033016 | 75 | 321 | 0.0 | 2.0 | 0.00 | 0.00 | 0.00 | 30 | 1001.7 |
| 20260903031527 | 76 | 323 | 0.0 | 0.0 | 0.00 | 0.00 | 0.00 | 32 | 1001.6 |
| 20260903030016 | 78 | 323 | 0.0 | 0.0 | 0.00 | 0.00 | 0.00 | 34 | 1001.4 |
| 20260903024513 | 79 | 323 | 0.0 | 0.0 | 0.00 | 0.00 | 0.00 | 31 | 1001.2 |
| 20260903023014 | 81 | 323 | 0.0 | 1.0 | 0.00 | 0.00 | 0.00 | 32 | 1001.0 |
| 20260903021533 | 82 | 323 | 0.0 | 1.0 | 0.00 | 0.00 | 0.00 | 31 | 1000.8 |
| 20260903020011 | 83 | 324 | 0.0 | 2.0 | 0.00 | 0.00 | 0.00 | 29 | 1000.5 |
| 20260903014510 | 84 | 267 | 0.0 | 0.0 | 0.00 | 0.00 | 0.00 | 27 | 1000.5 |
| 20260903013013 | 86 | 267 | 0.0 | 0.0 | 0.00 | 0.00 | 0.00 | 26 | 1000.5 |
| 20260903011508 | 88 | 267 | 0.0 | 1.0 | 0.00 | 0.00 | 0.00 | 24 | 1000.5 |
| 20260903010008 | 90 | 267 | 0.0 | 1.0 | 0.00 | 0.00 | 0.00 | 23 | 1000.5 |
| 20260903004507 | 92 | 267 | 0.0 | 1.0 | 0.00 | 0.00 | 0.00 | 21 | 1000.4 |
| 20260903003008 | 95 | 267 | 0.0 | 1.0 | 0.00 | 0.00 | 0.00 | 20 | 1000.4 |
| 20260903001506 | 96 | 267 | 0.0 | 1.0 | 0.00 | 0.00 | 0.00 | 19 | 1000.4 |
| 20260903000005 | 96 | 252 | 0.0 | 2.0 | 0.00 | 0.00 | 0.00 | 19 | 1000.6 |
| 20260902234504 | 97 | 242 | 0.0 | 1.0 | 0.00 | 0.00 | 0.00 | 19 | 1000.7 |
| 20260902233006 | 97 | 236 | 0.0 | 2.0 | 0.00 | 0.00 | 0.00 | 20 | 1000.8 |
| 20260902231502 | 98 | 222 | 0.0 | 1.0 | 0.00 | 0.00 | 0.00 | 19 | 1000.9 |
| 20260902230107 | 98 | 221 | 0.0 | 2.0 | 0.00 | 0.00 | 0.00 | 20 | 1001.0 |
| 20260902224559 | 98 | 219 | 0.0 | 1.0 | 0.00 | 0.00 | 0.00 | 20 | 1001.3 |
| 20260902223056 | 97 | 219 | 0.0 | 2.0 | 0.00 | 0.00 | 0.00 | 21 | 1001.5 |
| 20260902221557 | 98 | 209 | 0.0 | 1.0 | 0.00 | 0.00 | 0.00 | 20 | 1001.6 |
| 20260902220052 | 98 | 230 | 0.0 | 2.0 | 0.00 | 0.00 | 0.00 | 19 | 1001.9 |
| 20260902214549 | 97 | 226 | 0.0 | 1.0 | 0.00 | 0.00 | 0.00 | 22 | 1002.1 |
| 20260902213051 | 97 | 225 | 0.0 | 3.0 | 0.00 | 0.00 | 0.00 | 20 | 1002.3 |
| 20260902211548 | 96 | 311 | 0.0 | 3.0 | 0.00 | 0.00 | 0.00 | 19 | 1002.6 |
| 20260902210042 | 97 | 293 | 0.0 | 1.0 | 0.00 | 0.00 | 0.00 | 22 | 1002.8 |
| 20260902204540 | 96 | 240 | 0.0 | 2.0 | 0.00 | 0.00 | 0.00 | 24 | 1003.0 |
| 20260902203041 | 96 | 236 | 0.0 | 1.0 | 0.00 | 0.00 | 0.00 | 22 | 1003.2 |
| 20260902201533 | 95 | 209 | 0.0 | 2.0 | 0.00 | 0.00 | 0.00 | 25 | 1003.4 |
| 20260902200031 | 94 | 208 | 0.0 | 1.0 | 0.00 | 0.00 | 0.00 | 23 | 1003.6 |
| 20260902194528 | 94 | 213 | 0.0 | 5.0 | 0.00 | 0.00 | 0.00 | 25 | 1004.1 |
| 20260902193026 | 93 | 269 | 0.0 | 3.0 | 0.00 | 0.00 | 0.00 | 24 | 1004.2 |
| 20260902191526 | 92 | 206 | 0.0 | 5.0 | 0.00 | 0.00 | 0.00 | 22 | 1004.6 |
| 20260902190025 | 92 | 42 | 2.0 | 5.0 | 0.00 | 0.00 | 0.00 | 22 | 1005.0 |
| 20260902184515 | 91 | 26 | 0.0 | 2.0 | 0.00 | 0.00 | 0.00 | 26 | 1005.3 |
| 20260902183013 | 90 | 26 | 2.0 | 6.0 | 0.00 | 0.00 | 0.00 | 23 | 1005.5 |
| 20260902181510 | 89 | 263 | 0.0 | 7.0 | 0.00 | 0.00 | 0.00 | 25 | 1005.8 |
| 20260902180008 | 89 | 5 | 3.0 | 7.0 | 0.00 | 0.00 | 0.00 | 24 | 1006.2 |
| 20260902174506 | 88 | 251 | 2.0 | 8.0 | 0.00 | 0.00 | 0.00 | 24 | 1006.6 |
| 20260902173002 | 87 | 12 | 1.0 | 9.0 | 0.00 | 0.00 | 0.00 | 25 | 1006.8 |
| 20260902171603 | 87 | 315 | 2.0 | 6.0 | 0.00 | 0.00 | 0.00 | 26 | 1006.8 |
| 20260902170056 | 86 | 5 | 2.0 | 7.0 | 0.00 | 0.00 | 0.00 | 26 | 1007.1 |
| 20260902164558 | 85 | 325 | 2.0 | 7.0 | 0.00 | 0.00 | 0.00 | 27 | 1007.3 |
| 20260902163049 | 85 | 22 | 2.0 | 10.0 | 0.00 | 0.00 | 0.00 | 27 | 1007.4 |
| 20260902161546 | 84 | 66 | 3.0 | 9.0 | 0.00 | 0.00 | 0.00 | 27 | 1007.4 |
| 20260902160049 | 83 | 40 | 5.0 | 9.0 | 0.00 | 0.00 | 0.00 | 28 | 1007.5 |
| 20260902154548 | 81 | 9 | 3.0 | 8.0 | 0.00 | 0.00 | 0.00 | 31 | 1007.4 |
| 20260902153034 | 74 | 27 | 4.0 | 9.0 | 0.00 | 0.00 | 0.00 | 39 | 1007.3 |